Regional Weather Roundup
Issued by NWS State College, PA

Home | Current Version | Previous Version | Text Only | Print | Product List | Glossary On
Versions: 1 2 3 4 5 6 7 8 9 10 11 12 13 14 15 16 17 18 19 20 21 22 23 24 25 26 27 28 29 30 31 32 33 34 35 36 37 38 39 40 41 42 43 44 45 46 47 48 49 50
000
ASUS41 KCTP 220410
RWRCTP

REGIONAL WEATHER ROUNDUP
NATIONAL WEATHER SERVICE STATE COLLEGE PA
1200 AM EDT WED OCT 22 2014

Note: "fair" indicates few or no clouds below 12,000 feet with no
significant weather and/or obstructions to visibility.

* = STATION THAT DOES NOT REPORT PRECIPITATION /E.G. RAIN...SNOW...ETC/
    THUNDER OR FOG.

PAZ002>004-007>009-013>016-020>023-029>032-220500-
WESTERN PENNSYLVANIA

CITY           SKY/WX    TMP DP  RH WIND       PRES   REMARKS
ERIE           LGT RAIN  48  44  86 NE18G25   30.09S FOG
MEADVILLE      CLOUDY    46  44  93 N10       30.05S
FRANKLIN*      CLOUDY    46  43  87 N7        30.04S
NEW CASTLE       N/A     47  46  96 N7        30.06S
BEAVER COUNTY  NOT AVBL
BUTLER*        CLOUDY    46  45  93 CALM      30.04S
PITTSBURGH INT LGT RAIN  47  46  97 NW8       30.03S
PITTSBURGH     LGT RAIN  47  44  90 NW5       30.01S FOG
INDIANA*       CLOUDY    48  46  93 N3        30.03S
LATROBE        NOT AVBL
WASHINGTON CO* CLOUDY    46  45  93 W5        30.05S
$$

PAZ004>006-010>012-017>019-024>028-033>037-041-042-045-046-049>053-220500-
CENTRAL PENNSYLVANIA

CITY           SKY/WX    TMP DP  RH WIND       PRES   REMARKS
BRADFORD       CLOUDY    47  44  90 N7        30.01R
DUBOIS         CLOUDY    47  46  97 N7        29.99R
CLEARFIELD     CLOUDY    49  46  90 NE6       29.98S
JOHNSTOWN      LGT RAIN  45  43  93 NW6       29.96F FOG
ALTOONA        CLOUDY    49  47  93 CALM      29.96F
STATE COLLEGE  CLOUDY    50  47  90 N3        29.96F
WILLIAMSPORT   CLOUDY    51  47  86 SW3       29.96S
SELINSGROVE    CLOUDY    50  47  89 CALM      29.95S
FT INDIANTOWN  MOCLDY    54  53  96 VRB3      29.91F
CAPITAL CITY   CLOUDY    54  48  80 W5        29.92F
HARRISBURG     CLOUDY    54  48  80 NW7       29.91F
YORK           CLOUDY    52  49  89 CALM      29.92S
$$

PAZ038>040-043-044-047-048-054-055-060>062-067>071-220500-
EASTERN PENNSYLVANIA

CITY           SKY/WX    TMP DP  RH WIND       PRES   REMARKS
SCRANTON       MOCLDY    51  48  89 CALM      29.95S FOG
MOUNT POCONO   MOCLDY    49  46  90 NE7       29.93S
ALLENTOWN      MOCLDY    51  47  86 CALM      29.92S
QUAKERTOWN*    CLOUDY    52  50  93 NE3       29.91F
READING        CLOUDY    56  49  77 N7        29.90S
LANCASTER      CLOUDY    53  48  83 W5        29.90F
COATESVILLE    LGT RAIN  54  50  87 CALM      29.89F
POTTSTOWN      CLOUDY    54  49  83 NE6       29.91S
BLUE BELL      CLOUDY    55  52  88 N3        29.88F
DOYLESTOWN     CLOUDY    52  52 100 NE3       29.89F
WILLOW GROVE   NOT AVBL
NORTH PHILA    PTCLDY    56  47  71 NE6       29.90F
PHILADELPHIA   MOCLDY    59  50  72 NE10      29.88S
$$



USA.gov is the U.S. government's official web portal to all federal, state and local government web resources and services.